Wind_Speed
17 16 15 13 12 12 13 12 11 11 11 11 11 10 11 14 12 9 10 9 9 8 6 4 3 5 7 7 5 4 5 7 8 9 10 11 11 11 12 10 8 7 5 5 5 6 6 4 2 1 1 1 4 8 10 11 11 12 13 14 14 12 11
16 15 16 14 13 13 14 13 12 12 12 12 13 13 13 13 13 12 10 10 10 10 9 9 9 8 7 7 6 6 6 6 6 6 6 8 9 9 10 10 9 9 8 7 6 5 5 5 3 2 1 2 1 1 4 7 7 8 10 11 13 14 14
17 17 17 16 15 14 15 14 13 12 12 13 14 14 14 14 14 13 10 9 10 11 11 11 11 11 10 9 7 7 7 7 6 5 5 7 8 7 6 6 7 8 7 7 6 6 5 4 4 4 3 3 3 3 1 3 5 6 7 8 9 12 14
18 18 18 17 16 15 15 15 14 13 12 12 13 13 13 14 14 12 10 9 10 11 11 11 11 10 10 10 9 8 7 6 5 4 6 9 9 7 5 5 6 7 7 6 5 4 3 3 3 3 3 3 3 2 2 3 3 3 5 6 7 9 11
17 18 18 17 17 16 15 16 15 14 12 12 12 12 12 12 12 11 10 10 10 10 10 11 11 10 9 9 8 8 8 7 6 6 5 7 9 8 8 7 6 7 6 5 4 4 4 4 5 4 4 4 4 4 3 2 3 3 2 2 1 2 5
15 17 16 15 16 14 14 14 15 14 13 12 12 12 12 11 10 11 10 10 9 9 9 9 9 10 10 9 8 8 7 7 7 6 6 6 6 6 6 5 5 6 7 5 5 4 4 4 4 3 3 4 3 2 3 2 3 4 4 5 7 9 7
15 16 16 14 14 13 11 12 13 13 13 12 11 11 10 10 10 10 10 10 9 9 8 7 7 10 10 9 9 8 8 8 7 6 6 5 4 4 4 4 4 4 5 5 4 2 1 1 1 1 1 2 2 1 4 4 3 2 3 5 4 5 6
14 15 14 13 12 12 10 9 9 10 10 10 10 10 9 9 8 8 8 8 8 8 7 6 6 8 8 8 8 8 8 8 8 7 7 6 6 5 4 4 4 4 3 2 0 2 3 2 1 2 1 1 1 1 3 5 4 4 4 5 5 3 1
15 14 14 13 11 10 9 9 7 5 5 6 7 7 7 7 6 6 6 5 5 5 5 5 4 5 6 6 6 7 7 7 7 8 8 7 7 7 7 7 6 7 6 5 4 4 4 4 4 3 3 4 3 3 2 4 4 4 5 5 5 4 2
16 14 13 12 11 10 9 8 8 7 5 3 2 3 3 3 3 3 3 3 3 3 3 2 2 3 4 5 5 6 6 6 7 7 7 7 7 7 8 8 8 8 7 6 6 6 6 6 5 5 4 5 5 5 4 2 1 3 2 2 3 4 4
17 15 13 11 10 11 10 8 9 9 7 6 4 2 1 1 1 1 1 1 1 1 0 0 1 1 2 3 3 3 4 4 5 5 5 5 6 6 6 7 7 8 7 6 7 7 7 7 7 7 5 5 6 6 6 6 4 1 2 2 2 4 6
16 16 14 11 9 10 11 10 9 8 8 8 7 6 5 4 4 4 4 4 4 3 2 3 3 2 3 3 3 2 2 2 1 3 3 4 4 4 4 5 6 7 6 6 7 7 6 7 8 7 7 7 7 7 7 7 7 5 4 5 4 5 8
13 13 14 12 10 9 10 10 10 9 8 8 9 8 8 7 6 6 7 6 6 6 6 6 6 5 5 5 5 5 4 3 3 2 1 2 2 1 2 2 3 5 5 5 6 6 6 7 7 6 7 8 7 7 8 8 10 9 8 8 8 8 8
13 13 14 13 10 9 10 9 9 8 7 7 8 8 9 9 9 9 9 8 8 8 8 8 8 8 7 7 7 7 6 5 6 5 4 3 2 1 1 1 1 2 2 3 4 4 5 6 6 6 7 8 7 7 7 8 11 12 10 9 10 11 10
16 16 16 14 12 12 12 12 11 10 8 8 8 9 10 10 11 11 11 11 9 10 11 10 10 10 9 9 9 9 9 7 7 7 7 7 6 5 4 4 3 1 1 2 2 3 4 4 4 5 6 6 6 6 7 8 10 13 14 12 12 13 14
18 18 18 16 14 15 16 16 15 13 12 11 10 9 10 11 12 13 13 12 11 12 12 12 12 12 12 11 10 10 11 10 9 9 9 9 9 8 6 6 7 6 4 4 4 3 4 4 5 6 6 7 8 8 9 9 11 14 17 17 16 17 18
17 18 18 15 16 19 20 19 18 15 14 14 13 12 12 13 13 14 14 13 14 14 14 14 14 14 14 14 12 11 11 12 11 11 11 11 12 12 10 8 9 9 7 7 6 6 7 7 7 8 8 9 10 10 10 11 12 14 17 19 19 19 19
17 20 21 18 18 22 23 22 21 19 17 17 16 15 15 16 16 15 15 15 16 16 15 15 16 16 17 17 16 14 12 12 12 12 12 12 13 14 12 10 11 11 10 9 9 9 9 9 9 9 9 11 12 12 13 13 13 15 17 20 21 21 20
18 21 23 20 20 22 24 24 24 22 20 20 18 16 16 19 20 18 18 20 19 18 18 17 17 19 20 18 18 18 16 14 14 14 13 13 13 15 14 13 13 13 11 10 10 11 11 12 11 11 12 14 15 15 16 16 17 18 19 21 22 23 23
15 18 19 18 18 20 21 23 22 21 20 19 18 17 16 19 21 20 22 24 24 23 22 21 22 23 23 20 19 21 21 19 17 16 16 14 13 14 16 16 16 14 13 12 12 12 13 13 13 14 15 16 17 18 18 19 20 21 21 22 23 23 24
5 7 9 10 12 14 15 16 16 17 17 16 16 16 17 18 19 20 22 23 24 24 25 26 26 26 25 22 21 21 22 23 22 19 18 17 15 15 17 18 17 16 14 13 12 13 14 14 15 16 17 17 18 19 19 20 21 22 23 23 24 24 24
0 0 1 3 4 6 7 8 9 11 12 11 12 13 15 15 16 18 20 21 22 23 25 27 27 27 27 26 23 22 22 24 26 24 22 20 19 18 18 18 16 15 14 13 13 14 14 15 16 17 18 19 20 20 21 21 21 22 22 23 24 24 24
2 3 2 1 2 3 3 4 5 6 7 6 7 9 10 11 11 13 15 17 19 20 23 26 26 27 28 28 27 26 24 23 26 29 26 23 22 21 20 19 16 13 13 13 13 14 15 16 17 19 19 20 21 22 22 23 22 22 22 23 24 25 26
2 2 2 2 3 4 5 6 7 8 8 8 8 9 9 9 9 11 13 13 15 17 19 22 24 25 27 29 29 28 27 23 23 27 28 25 24 23 22 19 16 14 14 14 14 14 16 18 20 21 21 22 22 23 23 24 25 25 25 26 26 26 27
5 5 4 4 4 5 6 7 8 8 8 8 8 10 11 12 12 12 12 13 13 14 14 16 18 21 24 27 28 28 28 25 23 25 26 25 25 24 22 20 18 18 17 15 15 16 18 21 23 24 24 24 24 23 24 25 26 27 27 28 29 29 28
6 6 6 6 6 7 8 9 9 9 9 9 9 10 11 12 14 14 14 14 14 14 14 15 16 18 20 23 26 28 29 26 23 24 25 25 25 24 23 23 21 20 17 15 16 17 19 23 25 26 25 25 24 24 24 25 26 27 28 28 29 30 28
5 6 7 8 8 9 9 10 11 10 11 11 11 10 10 10 12 14 14 14 14 15 16 16 16 17 19 21 24 27 28 24 21 23 24 24 25 24 24 23 21 18 16 15 17 18 19 23 26 25 24 24 24 24 25 25 25 25 26 27 27 28 27
4 5 5 6 7 8 9 10 11 11 11 12 12 12 10 10 11 13 14 15 16 16 16 16 16 17 18 20 20 21 22 21 21 23 24 24 24 23 22 21 19 17 16 17 18 19 22 26 27 25 24 24 25 25 25 24 25 25 25 25 25 26 26
5 6 6 7 7 8 9 9 10 11 12 13 13 13 12 11 12 13 15 16 18 18 17 17 18 18 19 19 18 17 17 17 19 22 23 24 24 23 22 20 19 18 18 18 20 23 27 28 27 25 25 26 26 27 26 26 26 26 26 26 27 27 28
6 7 8 8 9 9 9 9 9 10 11 13 14 14 13 13 14 16 17 18 18 18 19 19 20 20 19 19 18 17 15 14 15 17 20 23 24 22 19 19 18 17 18 19 22 25 27 26 25 26 27 27 28 28 28 28 28 28 29 29 29 29 29
10 10 10 9 9 10 10 10 10 11 12 13 14 15 15 15 16 17 18 19 19 18 19 19 19 19 18 17 17 16 16 15 16 17 19 21 21 19 18 18 18 18 18 20 22 24 24 25 25 26 27 28 29 29 30 30 32 32 33 33 32 31 31
13 13 14 14 14 14 15 16 16 16 16 17 17 17 18 18 19 19 19 20 20 19 18 18 17 15 15 15 15 16 17 18 18 19 20 20 19 18 19 19 18 19 19 20 22 23 24 24 24 25 27 28 30 31 32 34 35 35 34 33 32 31 31
13 13 14 14 15 16 15 15 15 15 16 18 19 19 20 20 20 20 19 19 19 18 17 16 14 13 13 14 15 17 19 19 19 20 20 19 17 17 18 19 19 20 21 21 22 23 23 24 25 26 28 29 31 33 33 33 32 32 31 30 28 28 28
12 13 13 14 16 16 16 16 16 17 18 19 19 20 21 21 20 19 19 18 17 16 15 14 13 13 13 14 15 17 18 18 18 18 17 16 16 16 18 20 20 21 22 22 23 23 24 25 26 28 29 30 31 30 30 28 27 26 25 25 25 25 25
15 16 16 18 18 19 19 18 17 18 21 22 20 20 21 21 21 20 19 17 16 14 13 13 13 13 13 14 15 16 16 16 16 16 15 15 15 16 18 20 20 21 21 22 22 23 24 25 27 27 27 26 25 24 23 22 22 22 22 22 22 23 23
16 17 18 19 19 17 16 14 13 15 18 20 20 20 21 21 21 20 19 17 15 13 12 13 14 14 15 15 15 14 14 14 14 14 14 14 15 16 17 18 19 19 19 19 19 21 22 23 23 22 21 20 20 20 19 19 19 20 21 21 22 23 24
15 16 16 15 14 13 14 14 15 15 16 17 19 21 22 23 22 21 20 17 14 12 13 15 15 14 13 13 13 12 12 12 13 14 14 15 15 14 14 15 15 15 15 16 17 17 18 18 18 18 18 19 20 20 20 20 19 20 21 22 24 25 25
Wind_Direction
150 142 140 136 130 127 124 121 119 119 115 114 112 111 136 163 168 139 119 131 153 163 170 187 186 177 176 173 171 156 129 132 140 136 128 123 123 122 114 106 100 105 130 163 187 200 209 203 171 162 349 274 224 223 224 224 224 220 215 220 228 227 226
153 145 141 139 137 132 123 116 113 112 111 110 110 107 118 143 148 133 125 122 123 128 120 108 103 108 134 161 180 180 168 165 161 151 143 136 138 138 129 123 117 108 107 112 127 153 184 188 162 136 93 71 105 214 245 243 234 222 218 223 228 226 223
158 150 144 143 140 132 122 120 118 114 115 115 113 113 115 127 136 136 137 126 114 114 108 99 98 96 102 111 125 150 166 176 178 184 176 151 144 150 150 146 138 130 129 130 129 132 147 161 153 140 125 102 93 90 144 243 246 232 224 226 229 228 227
161 155 150 148 142 135 129 128 124 117 114 112 111 114 116 122 131 135 136 128 117 113 108 102 100 94 93 97 98 108 126 144 150 162 172 162 157 162 168 165 152 145 147 157 158 146 153 178 182 178 173 160 156 155 175 213 229 235 246 245 242 241 238
164 160 156 151 145 141 136 131 126 123 118 115 113 112 115 118 124 128 125 118 112 106 104 103 102 98 93 94 96 99 104 109 111 112 133 156 169 177 179 179 174 169 168 175 191 206 229 250 248 231 226 217 202 203 220 213 126 113 70 35 17 301 267
164 162 159 155 150 146 141 132 128 128 125 121 118 113 115 116 117 120 118 112 108 101 96 95 101 103 97 92 92 92 94 97 99 102 109 127 153 171 182 181 175 183 194 204 220 230 238 256 256 236 238 256 265 227 188 146 103 115 106 83 66 52 43
165 164 164 162 157 153 148 138 132 132 129 124 123 118 115 116 115 114 114 114 112 106 99 92 90 95 94 90 88 87 88 90 90 93 97 101 115 138 160 157 144 161 189 206 227 248 269 266 259 228 230 259 300 275 150 119 65 71 125 129 111 74 57
169 166 170 170 164 160 156 149 141 134 130 126 124 121 118 118 115 109 110 112 111 110 107 97 83 82 86 87 86 85 84 84 86 88 88 88 88 88 100 117 108 95 102 123 92 32 35 21 31 54 31 50 74 130 152 135 95 72 100 145 171 157 124
178 173 176 177 171 166 162 157 157 151 140 132 124 123 121 116 112 110 112 111 111 110 105 101 88 75 79 84 82 83 86 91 95 91 88 88 83 80 87 95 91 84 84 83 75 69 61 44 45 51 35 42 53 56 108 151 142 108 106 131 155 155 140
186 182 182 178 172 172 171 165 167 176 185 195 162 128 123 111 103 104 108 114 118 117 103 99 90 66 64 69 74 79 85 91 93 91 92 91 84 82 87 90 89 87 86 86 83 75 73 66 56 46 37 37 35 33 42 55 128 142 134 115 138 160 158
192 190 186 179 173 177 184 183 181 186 198 219 241 256 262 287 330 352 358 16 73 135 163 349 355 5 4 20 49 66 70 73 78 85 91 88 81 79 83 85 83 82 83 86 83 77 71 64 56 50 44 36 28 24 21 10 8 356 265 285 253 215 213
196 192 186 182 180 183 189 194 196 197 202 217 240 258 268 280 289 298 310 315 318 317 302 292 291 287 295 306 314 326 359 22 51 77 85 87 80 71 80 89 82 78 77 71 72 78 78 65 57 60 61 49 35 27 18 1 351 351 332 308 299 271 254
196 188 183 185 192 194 195 200 207 211 212 224 241 256 265 275 282 287 295 298 302 307 306 300 295 290 280 278 282 287 298 301 294 315 15 90 110 85 81 105 101 80 66 53 55 58 62 63 56 56 58 48 32 16 5 348 334 341 350 334 323 323 300
192 186 183 185 190 195 200 201 205 213 221 232 244 255 267 275 280 284 288 292 296 297 299 298 295 291 283 276 273 273 276 275 277 291 301 295 279 287 309 260 169 100 63 34 34 27 34 48 41 32 37 33 22 4 348 336 325 330 346 344 331 333 330
193 193 191 188 182 183 193 196 197 205 213 227 244 261 271 273 275 280 283 286 289 292 295 295 291 289 286 280 274 270 270 265 266 273 279 283 285 288 295 288 277 276 307 314 345 357 8 27 18 13 18 10 2 351 338 333 327 327 335 340 337 336 335
198 199 195 194 195 199 208 212 216 220 219 221 231 249 263 270 274 279 281 282 283 284 286 287 285 284 284 283 279 272 267 261 258 259 263 269 272 275 279 273 274 286 299 304 307 314 328 339 343 351 355 347 341 337 333 329 323 322 326 330 334 335 333
209 213 213 214 215 218 223 226 230 235 235 237 242 243 247 257 265 268 269 273 277 277 278 279 278 276 277 279 278 272 266 260 255 252 254 257 259 265 267 258 262 273 284 295 300 307 320 324 326 331 331 328 328 327 327 325 317 313 313 318 324 327 326
215 223 229 231 223 221 226 228 228 232 237 246 252 247 242 244 247 248 252 260 267 267 269 273 273 269 269 272 273 269 264 262 260 256 253 251 251 258 262 256 258 265 275 292 305 310 312 309 308 312 312 315 320 320 321 321 317 313 310 312 317 320 320
230 231 237 240 234 232 234 234 235 238 242 248 252 249 246 244 243 244 246 254 261 260 256 254 256 260 261 263 267 267 264 262 260 257 254 250 245 248 252 250 252 260 274 292 300 300 300 301 304 308 310 315 320 320 320 319 318 316 313 312 314 316 317
235 234 237 239 239 241 243 244 248 250 250 252 252 250 252 252 253 256 254 255 259 259 255 250 247 250 255 255 257 261 262 261 259 256 255 252 244 241 241 242 247 256 271 286 293 295 299 304 308 310 312 316 318 316 317 318 316 315 313 311 311 312 312
215 227 233 233 236 242 246 250 257 256 252 253 254 256 259 260 261 261 260 260 259 255 255 255 251 250 254 254 252 251 254 256 256 256 253 248 243 239 235 237 246 256 266 280 289 294 298 302 306 309 311 313 312 312 313 313 312 311 309 308 309 309 308
128 321 243 230 233 241 249 256 261 260 256 258 263 265 266 266 263 259 256 257 258 254 252 254 255 255 255 255 255 251 246 246 249 251 250 245 243 242 238 238 248 257 263 276 287 293 297 300 303 307 308 308 308 309 310 309 308 307 306 306 307 306 305
324 333 335 320 284 268 275 283 282 280 279 283 289 284 273 264 262 262 258 255 256 256 253 253 255 257 255 252 254 253 247 244 245 246 244 242 242 242 241 242 249 258 262 270 282 292 298 300 301 304 305 306 308 309 309 309 309 308 307 306 305 304 303
240 271 300 311 302 294 292 295 297 299 302 307 306 298 288 276 267 264 261 258 260 261 259 258 256 256 255 253 254 253 248 242 240 239 240 242 243 242 243 246 251 258 263 270 280 290 300 303 303 305 306 307 307 308 309 309 310 310 309 307 305 304 303
213 217 231 244 250 262 270 277 285 293 301 310 305 295 291 291 287 280 271 267 268 266 263 260 255 252 252 253 256 256 251 247 242 238 239 243 244 243 243 246 251 258 267 276 282 289 301 305 306 306 307 306 305 305 306 307 308 308 306 305 304 304 303
216 220 234 241 245 250 252 255 262 269 277 288 294 296 295 290 286 286 285 279 274 269 263 258 254 252 251 251 253 255 257 259 255 245 239 238 239 240 243 248 254 259 266 273 279 287 298 304 303 302 301 300 300 302 302 302 303 303 302 303 302 302 303
230 229 236 243 248 253 256 259 261 264 268 272 277 285 295 296 284 278 279 278 274 269 264 260 258 255 254 255 253 253 259 262 254 241 235 233 234 237 241 247 251 254 260 271 279 287 297 301 298 295 294 295 297 298 299 298 298 298 298 299 298 298 298
289 282 274 264 258 260 265 267 266 267 270 273 274 272 278 293 293 280 273 275 276 272 266 261 260 260 260 262 259 256 258 256 243 232 228 228 233 235 236 240 245 254 266 276 283 290 295 295 292 292 293 294 296 297 297 297 297 297 298 298 297 296 294
283 291 293 286 279 278 281 281 277 274 274 274 276 274 271 274 281 277 271 270 272 271 267 265 265 265 265 265 265 262 259 254 246 239 234 234 237 238 238 243 253 265 277 284 290 293 293 292 292 294 295 295 297 297 298 299 300 299 299 299 297 295 293
264 267 270 273 275 277 280 281 278 278 278 275 274 276 274 269 266 267 269 268 268 267 267 269 271 271 269 267 267 267 262 257 256 254 248 244 244 245 248 255 265 276 284 288 290 291 291 292 293 294 294 295 296 297 299 300 299 298 299 298 297 294 290
255 254 253 254 256 259 263 264 266 269 273 273 271 270 271 269 266 266 269 270 270 269 270 274 276 276 274 270 267 268 263 256 254 255 250 245 245 250 257 265 274 279 282 284 286 287 288 289 290 290 292 293 294 295 297 297 297 297 297 297 296 293 290
255 258 258 258 257 258 260 260 262 265 266 267 269 269 269 268 267 268 270 271 271 271 271 274 276 275 274 269 266 266 260 253 251 251 247 245 248 257 266 272 276 276 276 278 280 282 283 285 287 289 290 291 293 295 297 297 298 299 299 299 299 298 296
263 263 263 264 263 262 261 260 261 264 264 264 266 267 268 269 269 270 271 271 271 271 270 273 273 270 265 260 258 257 253 251 253 253 250 251 256 263 269 270 270 269 271 274 276 279 282 285 287 289 290 292 294 296 298 299 301 303 304 305 307 307 307
259 259 258 260 259 256 257 260 264 267 267 266 265 266 269 272 271 271 271 269 268 269 270 271 269 264 259 255 254 254 253 255 258 257 254 255 257 259 262 264 266 269 272 275 278 281 285 287 288 290 292 294 296 298 300 302 304 307 309 311 313 314 316
261 262 261 262 262 261 262 265 267 266 263 264 266 268 272 273 273 272 270 266 264 264 265 266 264 262 263 261 259 259 261 262 262 258 255 254 254 255 258 262 267 271 276 280 283 285 287 289 291 294 296 298 300 302 304 307 310 313 314 316 317 319 322
267 267 267 266 266 265 264 264 263 260 259 261 265 267 269 272 271 269 264 260 259 262 266 269 269 268 268 266 260 256 256 256 255 254 253 252 252 254 259 266 274 279 283 287 288 288 290 292 295 299 303 306 308 310 310 311 312 314 316 319 321 322 324
270 268 266 263 258 255 257 259 259 260 262 262 262 263 265 267 267 264 260 257 260 269 275 277 273 264 256 251 243 238 238 240 244 247 249 252 256 263 270 277 282 286 289 291 292 294 297 300 305 310 313 314 315 316 315 313 314 317 319 321 323 323 322
Height
1523 1524 1525 1526 1527 1528 1528 1529 1530 1531 1531 1532 1533 1533 1533 1534 1535 1535 1535 1535 1536 1536 1537 1536 1536 1536 1536 1536 1537 1537 1537 1537 1537 1537 1537 1537 1537 1537 1538 1538 1539 1539 1539 1540 1540 1540 1541 1541 1542 1543 1543 1543 1543 1544 1544 1544 1544 1545 1545 1546 1548 1549 1549
1523 1524 1525 1526 1527 1528 1528 1529 1530 1531 1531 1532 1533 1533 1534 1534 1535 1536 1536 1536 1536 1537 1537 1537 1537 1536 1537 1537 1537 1537 1537 1537 1538 1538 1537 1537 1538 1537 1537 1538 1538 1538 1539 1539 1539 1540 1540 1541 1542 1542 1543 1543 1543 1543 1543 1543 1544 1544 1544 1545 1546 1547 1548
1523 1524 1526 1527 1527 1528 1529 1530 1530 1531 1532 1532 1533 1534 1534 1535 1536 1536 1537 1537 1537 1537 1538 1538 1538 1538 1538 1538 1538 1538 1538 1538 1538 1538 1538 1538 1538 1538 1538 1538 1538 1538 1538 1539 1539 1539 1540 1540 1541 1542 1542 1542 1542 1542 1543 1543 1543 1544 1544 1545 1545 1545 1546
1523 1524 1525 1526 1527 1528 1529 1530 1531 1532 1532 1533 1534 1534 1535 1536 1536 1537 1537 1538 1538 1538 1538 1539 1539 1539 1539 1539 1539 1539 1539 1539 1539 1539 1539 1539 1539 1539 1539 1539 1538 1538 1539 1539 1539 1539 1539 1540 1540 1541 1541 1541 1542 1542 1542 1542 1543 1543 1544 1544 1544 1545 1545
1523 1524 1525 1526 1527 1528 1529 1530 1531 1532 1533 1533 1534 1535 1536 1536 1537 1537 1538 1538 1539 1539 1539 1540 1540 1540 1540 1540 1540 1540 1540 1540 1540 1540 1540 1540 1540 1540 1540 1540 1539 1539 1539 1539 1539 1539 1539 1539 1540 1540 1540 1540 1541 1541 1541 1541 1542 1542 1543 1543 1543 1544 1544
1523 1525 1526 1527 1528 1529 1530 1530 1531 1532 1533 1534 1534 1535 1536 1537 1537 1538 1539 1539 1540 1540 1540 1540 1541 1541 1541 1541 1541 1541 1541 1541 1541 1541 1541 1541 1540 1540 1540 1540 1540 1540 1540 1539 1539 1539 1539 1539 1539 1540 1540 1539 1540 1540 1540 1541 1540 1540 1541 1542 1543 1543 1543
1522 1524 1526 1527 1528 1529 1530 1531 1531 1532 1533 1534 1535 1535 1536 1537 1538 1538 1539 1540 1540 1541 1541 1541 1541 1542 1542 1542 1542 1542 1542 1542 1542 1542 1541 1541 1541 1541 1541 1540 1540 1540 1540 1540 1540 1540 1540 1539 1539 1539 1539 1539 1539 1539 1540 1540 1540 1539 1540 1541 1541 1541 1541
1521 1524 1526 1527 1529 1529 1530 1531 1531 1532 1533 1534 1535 1535 1536 1537 1538 1539 1539 1540 1541 1542 1542 1542 1542 1542 1542 1543 1543 1543 1543 1542 1542 1542 1542 1541 1541 1541 1541 1541 1541 1540 1540 1540 1540 1540 1540 1540 1539 1539 1538 1538 1538 1538 1539 1539 1539 1539 1540 1540 1540 1540 1540
1521 1522 1525 1527 1528 1529 1530 1531 1531 1532 1533 1533 1534 1535 1536 1537 1538 1539 1540 1541 1541 1542 1543 1543 1543 1543 1543 1543 1543 1543 1543 1543 1543 1542 1542 1542 1541 1541 1541 1541 1541 1541 1541 1541 1540 1540 1540 1540 1539 1539 1538 1538 1538 1538 1538 1539 1539 1540 1540 1540 1540 1540 1540
1521 1521 1523 1526 1527 1529 1530 1532 1532 1532 1533 1533 1534 1535 1536 1537 1538 1539 1540 1541 1542 1542 1543 1543 1543 1543 1543 1544 1544 1544 1544 1543 1543 1543 1543 1542 1542 1542 1541 1541 1541 1541 1541 1541 1541 1540 1540 1540 1539 1539 1538 1538 1538 1538 1538 1538 1538 1539 1540 1540 1540 1540 1540
1521 1521 1522 1524 1527 1528 1530 1532 1532 1533 1533 1533 1534 1535 1536 1537 1537 1538 1539 1540 1541 1542 1543 1543 1543 1543 1543 1544 1544 1544 1544 1544 1543 1543 1543 1543 1543 1542 1542 1542 1542 1541 1541 1541 1541 1541 1540 1540 1540 1539 1539 1539 1538 1538 1538 1538 1538 1538 1539 1539 1539 1539 1539
1521 1522 1522 1524 1526 1528 1529 1531 1532 1532 1533 1533 1533 1534 1535 1536 1537 1538 1539 1539 1540 1541 1542 1542 1543 1543 1543 1543 1543 1543 1543 1543 1543 1543 1544 1543 1543 1543 1543 1543 1542 1542 1542 1542 1541 1541 1541 1540 1540 1540 1540 1539 1539 1539 1539 1539 1538 1538 1538 1538 1538 1538 1538
1521 1522 1522 1523 1525 1526 1528 1530 1531 1532 1532 1532 1533 1533 1534 1535 1536 1537 1537 1538 1539 1540 1541 1541 1542 1542 1543 1543 1543 1543 1543 1543 1543 1543 1543 1543 1543 1543 1543 1543 1542 1542 1542 1542 1541 1541 1541 1540 1540 1540 1540 1540 1539 1539 1539 1539 1538 1538 1538 1538 1537 1537 1537
1521 1522 1522 1522 1523 1525 1527 1528 1529 1530 1531 1531 1532 1532 1533 1534 1534 1535 1536 1537 1538 1538 1539 1540 1541 1541 1542 1542 1542 1542 1542 1542 1542 1542 1542 1542 1542 1542 1542 1542 1542 1542 1542 1541 1541 1541 1541 1540 1540 1540 1539 1539 1539 1539 1539 1538 1538 1537 1537 1537 1536 1536 1536
1520 1521 1521 1522 1523 1524 1525 1526 1527 1528 1529 1529 1530 1530 1531 1532 1533 1534 1534 1535 1536 1537 1537 1538 1539 1540 1540 1541 1541 1541 1541 1541 1541 1541 1540 1541 1541 1541 1541 1541 1541 1541 1541 1541 1541 1541 1540 1540 1540 1540 1539 1539 1539 1539 1538 1537 1537 1536 1535 1535 1535 1535 1534
1519 1519 1520 1521 1523 1524 1524 1524 1525 1526 1527 1528 1528 1529 1530 1531 1532 1532 1533 1534 1534 1535 1535 1536 1537 1538 1539 1540 1540 1540 1540 1540 1540 1540 1539 1539 1539 1539 1540 1540 1539 1540 1540 1540 1540 1540 1540 1540 1540 1539 1539 1538 1538 1538 1537 1536 1535 1534 1533 1533 1533 1533 1532
1518 1519 1519 1519 1521 1523 1523 1522 1522 1522 1523 1525 1526 1527 1529 1529 1530 1531 1532 1532 1532 1532 1533 1534 1535 1536 1537 1538 1538 1538 1538 1538 1539 1539 1538 1538 1538 1537 1538 1538 1538 1538 1539 1539 1539 1539 1539 1539 1539 1538 1538 1538 1537 1537 1536 1535 1535 1534 1532 1531 1531 1531 1530
1516 1518 1518 1518 1518 1520 1521 1521 1521 1520 1520 1522 1523 1524 1526 1528 1528 1529 1530 1531 1531 1532 1532 1533 1533 1534 1534 1534 1535 1536 1536 1536 1537 1537 1537 1537 1537 1536 1536 1537 1537 1537 1537 1538 1538 1538 1538 1538 1538 1537 1537 1537 1536 1536 1535 1535 1534 1533 1532 1530 1529 1529 1528
1514 1516 1517 1517 1517 1518 1519 1519 1519 1519 1519 1520 1521 1522 1523 1525 1526 1527 1528 1529 1529 1531 1532 1532 1532 1532 1531 1532 1534 1535 1535 1535 1535 1535 1535 1535 1535 1535 1535 1535 1536 1536 1536 1536 1536 1536 1536 1536 1536 1536 1536 1535 1534 1534 1533 1533 1532 1531 1530 1529 1527 1526 1526
1514 1514 1515 1516 1516 1516 1516 1517 1517 1517 1517 1518 1519 1520 1520 1521 1523 1524 1525 1525 1526 1527 1529 1530 1530 1530 1530 1531 1533 1534 1534 1534 1533 1533 1533 1533 1533 1534 1534 1534 1534 1535 1535 1535 1535 1535 1535 1535 1535 1534 1534 1533 1533 1532 1531 1531 1530 1529 1528 1527 1526 1524 1523
1513 1513 1513 1514 1514 1514 1514 1515 1515 1515 1516 1517 1517 1517 1517 1518 1520 1521 1521 1522 1522 1524 1525 1526 1527 1528 1529 1529 1530 1531 1532 1532 1532 1532 1532 1531 1531 1531 1532 1532 1533 1533 1534 1534 1534 1534 1533 1533 1533 1533 1532 1532 1531 1530 1530 1529 1528 1527 1526 1524 1523 1522 1521
1511 1512 1512 1512 1512 1512 1513 1513 1513 1513 1514 1515 1515 1515 1515 1516 1517 1517 1518 1519 1519 1520 1521 1523 1524 1526 1527 1528 1528 1528 1529 1530 1531 1530 1530 1529 1529 1529 1529 1530 1531 1531 1532 1532 1532 1532 1532 1531 1531 1531 1531 1530 1529 1528 1527 1527 1526 1525 1523 1522 1521 1520 1518
1511 1511 1511 1511 1512 1512 1512 1512 1512 1513 1513 1513 1514 1513 1513 1514 1514 1515 1515 1516 1517 1517 1518 1520 1522 1523 1524 1525 1526 1526 1526 1528 1528 1528 1527 1527 1526 1526 1526 1527 1528 1529 1530 1530 1530 1530 1530 1530 1529 1529 1529 1528 1527 1526 1524 1524 1523 1522 1521 1519 1518 1517 1515
1510 1511 1511 1511 1511 1511 1511 1511 1511 1511 1512 1512 1512 1512 1512 1513 1513 1513 1513 1514 1514 1515 1516 1517 1519 1520 1521 1522 1523 1523 1524 1525 1526 1526 1525 1525 1524 1524 1524 1525 1526 1526 1527 1527 1527 1527 1528 1528 1527 1527 1526 1525 1524 1523 1522 1521 1520 1519 1518 1516 1515 1515 1513
1509 1510 1510 1510 1510 1510 1511 1511 1510 1511 1510 1511 1511 1511 1511 1511 1511 1511 1511 1511 1512 1512 1514 1515 1516 1517 1518 1519 1520 1520 1520 1521 1522 1523 1523 1522 1522 1522 1522 1522 1523 1523 1524 1524 1525 1525 1525 1525 1525 1524 1523 1523 1521 1521 1520 1519 1517 1516 1515 1513 1512 1511 1510
1508 1508 1508 1508 1509 1509 1509 1509 1509 1509 1509 1509 1510 1509 1509 1509 1509 1510 1510 1510 1511 1511 1512 1513 1513 1514 1515 1516 1517 1517 1517 1517 1518 1519 1520 1519 1519 1519 1520 1520 1520 1521 1521 1522 1522 1522 1522 1522 1523 1522 1521 1520 1519 1519 1518 1517 1516 1514 1512 1511 1509 1508 1507
1507 1507 1507 1507 1507 1507 1508 1508 1508 1508 1508 1508 1508 1508 1508 1508 1508 1509 1509 1509 1510 1510 1511 1511 1511 1512 1513 1513 1514 1514 1515 1515 1516 1516 1517 1517 1517 1517 1518 1518 1518 1519 1519 1520 1520 1520 1519 1520 1520 1519 1518 1518 1517 1516 1515 1514 1514 1512 1511 1509 1507 1505 1505
1506 1506 1506 1506 1506 1506 1506 1506 1506 1506 1506 1506 1506 1506 1507 1507 1507 1507 1508 1508 1508 1509 1509 1509 1510 1510 1510 1511 1511 1512 1512 1513 1513 1514 1514 1514 1514 1515 1516 1517 1517 1517 1518 1518 1517 1517 1517 1517 1517 1516 1515 1514 1514 1513 1512 1512 1511 1509 1508 1507 1505 1503 1502
1505 1505 1505 1505 1505 1505 1505 1505 1505 1505 1505 1505 1505 1505 1505 1506 1506 1506 1506 1506 1507 1507 1507 1508 1508 1508 1508 1509 1509 1510 1510 1511 1512 1513 1513 1513 1513 1514 1514 1515 1515 1516 1516 1515 1514 1514 1514 1514 1513 1512 1512 1511 1510 1509 1509 1508 1507 1505 1504 1503 1502 1500 1499
1504 1504 1504 1504 1504 1504 1504 1504 1504 1504 1504 1504 1503 1503 1504 1504 1504 1504 1504 1505 1505 1505 1506 1506 1506 1507 1507 1507 1508 1508 1509 1510 1511 1511 1512 1512 1512 1512 1513 1513 1513 1513 1513 1512 1511 1511 1511 1510 1510 1509 1508 1507 1506 1505 1505 1504 1502 1501 1500 1499 1498 1497 1496
1503 1503 1503 1503 1503 1503 1503 1503 1503 1502 1502 1502 1502 1502 1502 1502 1503 1503 1503 1503 1503 1504 1504 1505 1505 1505 1505 1506 1506 1507 1507 1508 1509 1509 1510 1510 1510 1510 1510 1510 1510 1510 1510 1509 1509 1508 1508 1507 1506 1506 1505 1504 1502 1501 1501 1499 1498 1497 1496 1495 1494 1493 1491
1501 1501 1501 1501 1501 1501 1501 1501 1501 1501 1500 1500 1500 1500 1500 1500 1501 1501 1501 1502 1502 1502 1503 1503 1503 1503 1503 1504 1505 1505 1506 1506 1507 1507 1507 1508 1508 1508 1508 1508 1508 1508 1507 1507 1506 1506 1505 1504 1503 1502 1501 1500 1499 1497 1496 1495 1493 1492 1490 1489 1488 1487 1486
1499 1499 1499 1499 1499 1499 1499 1499 1499 1499 1498 1498 1498 1498 1498 1498 1499 1499 1499 1500 1500 1500 1500 1501 1501 1501 1502 1502 1503 1504 1504 1505 1505 1505 1506 1506 1506 1506 1506 1506 1505 1505 1504 1504 1503 1503 1502 1501 1500 1499 1498 1497 1495 1494 1492 1491 1489 1487 1486 1484 1483 1482 1481
1497 1497 1497 1497 1496 1497 1497 1497 1497 1497 1496 1495 1496 1496 1496 1496 1496 1497 1497 1498 1498 1498 1498 1499 1499 1500 1501 1501 1502 1502 1503 1503 1503 1504 1504 1504 1504 1504 1503 1503 1502 1502 1502 1501 1501 1500 1499 1498 1497 1496 1495 1493 1492 1490 1488 1487 1485 1484 1482 1481 1480 1478 1477
1495 1494 1494 1494 1494 1494 1494 1495 1495 1494 1493 1493 1493 1494 1494 1494 1494 1495 1495 1495 1496 1496 1496 1497 1498 1498 1499 1500 1500 1501 1501 1501 1501 1501 1502 1502 1502 1501 1501 1500 1499 1499 1499 1499 1499 1498 1497 1495 1494 1493 1492 1490 1489 1487 1485 1484 1482 1481 1480 1478 1477 1476 1474
1492 1492 1492 1492 1492 1492 1492 1492 1492 1492 1491 1491 1492 1492 1492 1492 1493 1493 1493 1493 1493 1494 1494 1495 1496 1496 1497 1498 1498 1499 1499 1499 1499 1499 1500 1500 1499 1499 1498 1498 1498 1498 1498 1497 1496 1495 1494 1493 1491 1490 1489 1487 1486 1484 1483 1481 1480 1478 1477 1475 1474 1472 1471
1490 1490 1489 1489 1489 1489 1489 1489 1489 1489 1489 1489 1490 1490 1490 1490 1491 1491 1491 1491 1492 1492 1492 1493 1494 1494 1495 1496 1496 1497 1497 1497 1497 1497 1498 1498 1498 1498 1497 1497 1496 1496 1495 1495 1494 1493 1491 1490 1489 1487 1486 1484 1483 1482 1480 1478 1477 1475 1474 1472 1471 1469 1468